Flag for Germany Weather past 2 weeks in Karlsruhe, Baden-Württemberg, Germany

Now
66 °F

Passing clouds.


Feels Like: 66 °F
Forecast: 48 / 70 °F
Wind: 10 mph from Northeast

Location: Karlsruhe - Baden Wurttemberg

Current Time: May 22, 2015 at 4:59:13 PM

Latest Report: May 22, 2015 at 4:20 PM


Visibility: N/A

Pressure: 30.21 "Hg

Humidity: 30%

Dew point: 34 °F

Location of KarlsruheLocation

Historic Weather in Karlsruhe — Graph

°F

Karlsruhe temperature yesterday

Maximum temperature yesterday: 63 °F (at 3:20 PM)
Minimum temperature yesterday: 43 °F (at 4:50 AM)
Average temperature yesterday: 55 °F

Past Weeks' High & Low Weather Summary

 TemperatureHumidityPressure
High84 °F (May 12, 2:20 PM)94% (May 11, 4:50 AM)30.36 "Hg (May 11, 4:50 AM)
Low39 °F (May 22, 4:50 AM)28% (May 11, 5:50 PM)29.71 "Hg (May 18, 7:50 PM)
Average61 °F60%30.08 "Hg
* Reported May 7 3:20 PM — May 22 3:50 PM, Karlsruhe, Weather by CustomWeather, © 2015

Note: Actual official high and low records may vary slightly from our data, if they occured in-between our weather recording intervals... More about our weather records

Advertising

Karlsruhe weather history for previous 24 hours

 ConditionsComfort  
Time TempWeatherWind HumidityBarometerVisibility
3:50 PM
Fri, May 22
64 °FPassing clouds.9 mph34%30.21 "HgN/A
3:20 PM66 °FPassing clouds.10 mph32%30.21 "HgN/A
2:50 PM66 °FPassing clouds.10 mph30%30.24 "HgN/A
2:20 PM66 °FPassing clouds.12 mph30%30.24 "HgN/A
1:50 PM64 °FSunny.12 mph32%30.24 "Hg10 mi
1:20 PM64 °FPassing clouds.10 mph32%30.27 "HgN/A
12:50 PM64 °FPassing clouds.12 mph30%30.27 "HgN/A
12:20 PM64 °FPassing clouds.9 mph34%30.27 "HgN/A
11:50 AM63 °FPassing clouds.8 mph34%30.30 "HgN/A
11:20 AM61 °FPassing clouds.8 mph42%30.30 "HgN/A
10:50 AM59 °FPassing clouds.8 mph48%30.30 "HgN/A
10:20 AM57 °FPassing clouds.6 mph51%30.30 "HgN/A
9:50 AM55 °FPassing clouds.6 mph59%30.30 "HgN/A
9:20 AM54 °FPassing clouds.5 mph63%30.33 "HgN/A
8:50 AM50 °FSunny.3 mph67%30.33 "Hg10 mi
8:20 AM50 °FSunny.2 mph71%30.33 "Hg10 mi
7:50 AM46 °FSunny.1 mph82%30.33 "Hg10 mi
7:20 AM46 °FSunny.No wind76%30.33 "Hg10 mi
6:50 AM41 °FSunny.No wind81%30.33 "Hg10 mi
6:20 AM39 °FClear.2 mph87%30.30 "Hg10 mi
5:50 AM39 °FClear.1 mph87%30.30 "Hg10 mi
5:20 AM39 °FClear.2 mph87%30.30 "Hg10 mi
4:50 AM39 °FClear.No wind93%30.30 "Hg10 mi
4:20 AM41 °FClear.1 mph87%30.33 "Hg10 mi
11:50 PM
Thu, May 21
48 °FClear.5 mph71%30.33 "Hg10 mi
11:20 PM50 °FClear.No wind62%30.30 "Hg10 mi
10:50 PM52 °FClear.3 mph58%30.30 "Hg10 mi
10:20 PM55 °FClear.5 mph51%30.30 "Hg10 mi
9:50 PM55 °FSunny.6 mph44%30.30 "Hg10 mi
9:20 PM55 °FSunny.6 mph44%30.30 "Hg10 mi
8:50 PM57 °FSunny.6 mph41%30.27 "Hg10 mi
8:20 PM57 °FSunny.6 mph41%30.27 "Hg10 mi
7:50 PM59 °FSunny.6 mph39%30.27 "Hg10 mi
7:20 PM61 °FSunny.10 mph34%30.27 "Hg10 mi
6:50 PM63 °FPassing clouds.7 mph32%30.27 "HgN/A
6:20 PM61 °FPassing clouds.9 mph34%30.27 "HgN/A
5:50 PM61 °FSunny.6 mph36%30.24 "Hg10 mi
5:20 PM63 °FPassing clouds.6 mph34%30.24 "HgN/A
4:50 PM63 °FSunny.5 mph34%30.24 "Hg10 mi
4:20 PM63 °FPassing clouds.8 mph39%30.24 "HgN/A
Weather by CustomWeather, © 2015

See weather overviewHow to use our weather pages